Location: Utrecht
(52.0907°N, 5.1214°E)
Time: 14:34:33
(UTC+02:00)

ESTCUBE 1 - Pass Details

Date: 28 June 2022
Orbit: 646 x 657 km, 97.9° (Epoch: 11 August)

Event Time Altitude Azimuth Distance (km) Brightness Sun altitude
Exits shadow 23:50:49 13° 177° (S) 1,868 ? -10.8°
Maximum altitude 23:54:48 65° 258° (WSW) 717 ? -11.0°
Drops below altitude 10° 23:59:16 10° 341° (NNW) 2,062 ? -11.3°
Sets 00:01:31 0° 344° (NNW) 2,979 ? -11.5°
